QPF
0.00 0.00 0.00 0.00 0.00 0.00 0.00 0.00 0.00 0.00 0.00 0.00 0.00 0.00 0.00 0.00 0.00 0.00 0.00 0.00 0.00 0.00 0.00 0.00 0.00 0.00 0.00 0.00 0.01 0.00 0.00 0.00 0.00 0.00 0.00 0.00 0.00 0.00 0.01 0.00 0.00 0.00 0.00 0.00 0.00 0.00 0.00 0.00 0.00
0.00 0.00 0.00 0.00 0.00 0.00 0.00 0.00 0.00 0.00 0.00 0.00 0.00 0.00 0.00 0.00 0.00 0.00 0.00 0.00 0.00 0.00 0.00 0.00 0.00 0.00 0.00 0.00 0.01 0.00 0.00 0.00 0.00 0.00 0.00 0.00 0.00 0.00 0.00 0.00 0.00 0.00 0.00 0.00 0.00 0.00 0.00 0.00 0.00
0.00 0.00 0.00 0.00 0.00 0.00 0.00 0.00 0.00 0.00 0.00 0.00 0.00 0.00 0.00 0.00 0.00 0.00 0.00 0.00 0.00 0.00 0.00 0.00 0.00 0.00 0.00 0.01 0.01 0.00 0.00 0.00 0.00 0.00 0.00 0.00 0.00 0.00 0.00 0.00 0.00 0.00 0.00 0.00 0.00 0.00 0.00 0.00 0.00
0.00 0.00 0.00 0.00 0.00 0.00 0.00 0.00 0.00 0.00 0.00 0.00 0.00 0.00 0.00 0.00 0.00 0.00 0.00 0.00 0.00 0.00 0.00 0.00 0.00 0.00 0.01 0.01 0.01 0.00 0.00 0.00 0.00 0.00 0.00 0.00 0.00 0.00 0.00 0.00 0.00 0.00 0.00 0.00 0.00 0.00 0.00 0.00 0.00
0.00 0.00 0.00 0.00 0.00 0.00 0.00 0.00 0.00 0.00 0.00 0.00 0.00 0.00 0.00 0.00 0.00 0.00 0.00 0.00 0.00 0.00 0.00 0.00 0.00 0.01 0.01 0.01 0.01 0.01 0.00 0.00 0.00 0.00 0.00 0.00 0.00 0.00 0.00 0.00 0.00 0.00 0.00 0.00 0.00 0.00 0.00 0.00 0.00
0.00 0.00 0.00 0.00 0.00 0.00 0.00 0.00 0.00 0.00 0.00 0.00 0.00 0.00 0.00 0.00 0.00 0.00 0.00 0.00 0.00 0.00 0.00 0.00 0.00 0.01 0.01 0.01 0.01 0.01 0.01 0.00 0.00 0.00 0.00 0.00 0.00 0.00 0.00 0.00 0.00 0.00 0.00 0.00 0.00 0.00 0.00 0.00 0.00
0.00 0.00 0.00 0.00 0.00 0.00 0.00 0.00 0.00 0.00 0.00 0.00 0.00 0.00 0.00 0.00 0.00 0.00 0.00 0.00 0.00 0.00 0.00 0.00 0.00 0.01 0.01 0.01 0.01 0.01 0.01 0.01 0.01 0.01 0.00 0.00 0.00 0.00 0.00 0.00 0.00 0.00 0.00 0.00 0.00 0.00 0.00 0.00 0.00
0.00 0.00 0.00 0.00 0.00 0.00 0.00 0.00 0.00 0.00 0.00 0.00 0.00 0.00 0.00 0.00 0.00 0.00 0.00 0.00 0.00 0.00 0.00 0.00 0.00 0.00 0.00 0.01 0.01 0.01 0.01 0.01 0.01 0.01 0.00 0.00 0.00 0.00 0.00 0.00 0.00 0.00 0.00 0.00 0.00 0.00 0.00 0.00 0.00
0.00 0.00 0.00 0.00 0.00 0.00 0.00 0.00 0.00 0.00 0.00 0.00 0.00 0.00 0.00 0.00 0.00 0.00 0.00 0.00 0.00 0.00 0.00 0.00 0.00 0.00 0.00 0.00 0.01 0.01 0.01 0.01 0.01 0.01 0.00 0.00 0.00 0.00 0.00 0.00 0.00 0.00 0.00 0.00 0.00 0.00 0.00 0.00 0.00
0.00 0.00 0.00 0.00 0.00 0.00 0.00 0.00 0.00 0.00 0.00 0.00 0.00 0.00 0.00 0.00 0.00 0.00 0.00 0.00 0.00 0.00 0.00 0.00 0.00 0.00 0.00 0.00 0.00 0.00 0.00 0.00 0.00 0.00 0.00 0.00 0.00 0.00 0.00 0.00 0.00 0.00 0.00 0.00 0.00 0.00 0.00 0.00 0.00
0.00 0.00 0.00 0.00 0.00 0.00 0.00 0.00 0.00 0.00 0.00 0.00 0.00 0.00 0.00 0.00 0.00 0.00 0.00 0.00 0.00 0.00 0.00 0.00 0.00 0.00 0.00 0.00 0.00 0.00 0.00 0.00 0.00 0.00 0.00 0.00 0.00 0.00 0.00 0.00 0.00 0.00 0.00 0.00 0.00 0.00 0.00 0.00 0.00
0.00 0.00 0.00 0.00 0.00 0.00 0.00 0.00 0.00 0.00 0.00 0.00 0.00 0.00 0.00 0.00 0.00 0.00 0.00 0.00 0.00 0.00 0.00 0.00 0.00 0.00 0.00 0.00 0.00 0.00 0.00 0.00 0.00 0.00 0.00 0.00 0.00 0.00 0.00 0.00 0.00 0.00 0.00 0.00 0.00 0.00 0.00 0.00 0.00
0.00 0.00 0.00 0.00 0.00 0.00 0.00 0.00 0.00 0.00 0.00 0.00 0.00 0.00 0.00 0.00 0.00 0.00 0.00 0.00 0.00 0.00 0.00 0.00 0.00 0.00 0.00 0.00 0.00 0.00 0.00 0.00 0.00 0.00 0.00 0.00 0.00 0.00 0.00 0.00 0.00 0.00 0.00 0.00 0.00 0.00 0.00 0.00 0.00
0.00 0.00 0.00 0.00 0.00 0.00 0.00 0.00 0.00 0.00 0.00 0.00 0.00 0.00 0.00 0.00 0.00 0.00 0.00 0.00 0.00 0.00 0.00 0.00 0.00 0.00 0.00 0.00 0.00 0.00 0.00 0.00 0.00 0.00 0.00 0.00 0.00 0.00 0.00 0.00 0.00 0.00 0.00 0.00 0.00 0.00 0.00 0.00 0.00
0.00 0.00 0.00 0.00 0.00 0.00 0.00 0.00 0.00 0.00 0.00 0.00 0.00 0.00 0.00 0.00 0.00 0.00 0.00 0.00 0.00 0.00 0.00 0.00 0.00 0.00 0.00 0.00 0.00 0.00 0.00 0.00 0.00 0.00 0.00 0.00 0.00 0.00 0.00 0.00 0.00 0.00 0.00 0.00 0.00 0.00 0.00 0.00 0.00
0.00 0.00 0.00 0.00 0.00 0.00 0.00 0.00 0.00 0.00 0.00 0.00 0.00 0.00 0.00 0.00 0.00 0.00 0.00 0.00 0.00 0.00 0.00 0.00 0.00 0.00 0.00 0.00 0.00 0.00 0.00 0.00 0.00 0.00 0.00 0.00 0.00 0.00 0.00 0.00 0.00 0.00 0.00 0.00 0.00 0.00 0.00 0.00 0.00
0.00 0.00 0.00 0.00 0.00 0.00 0.00 0.00 0.00 0.00 0.00 0.00 0.00 0.00 0.00 0.00 0.00 0.00 0.00 0.00 0.00 0.00 0.00 0.00 0.00 0.00 0.00 0.00 0.00 0.00 0.00 0.00 0.00 0.00 0.00 0.00 0.00 0.00 0.00 0.00 0.00 0.00 0.00 0.00 0.00 0.00 0.00 0.00 0.00
0.00 0.00 0.00 0.00 0.00 0.00 0.00 0.00 0.00 0.00 0.00 0.00 0.00 0.00 0.00 0.00 0.00 0.00 0.00 0.00 0.00 0.00 0.00 0.00 0.00 0.00 0.00 0.00 0.00 0.00 0.00 0.00 0.00 0.00 0.00 0.00 0.00 0.00 0.00 0.00 0.00 0.00 0.00 0.00 0.00 0.00 0.00 0.00 0.00
0.00 0.00 0.00 0.00 0.00 0.00 0.00 0.00 0.00 0.00 0.00 0.00 0.00 0.00 0.00 0.00 0.00 0.00 0.00 0.00 0.00 0.00 0.00 0.00 0.00 0.00 0.00 0.00 0.00 0.00 0.00 0.00 0.00 0.00 0.00 0.00 0.00 0.00 0.00 0.00 0.00 0.00 0.00 0.00 0.00 0.00 0.00 0.00 0.00
0.00 0.00 0.00 0.00 0.00 0.00 0.00 0.00 0.00 0.00 0.00 0.00 0.00 0.00 0.00 0.00 0.00 0.00 0.00 0.00 0.00 0.00 0.00 0.00 0.00 0.00 0.00 0.00 0.00 0.00 0.00 0.00 0.00 0.00 0.00 0.00 0.00 0.00 0.00 0.00 0.00 0.00 0.00 0.00 0.00 0.00 0.00 0.00 0.00
0.00 0.00 0.00 0.00 0.00 0.00 0.00 0.00 0.00 0.00 0.00 0.00 0.00 0.00 0.00 0.00 0.00 0.00 0.00 0.00 0.00 0.00 0.00 0.00 0.00 0.00 0.00 0.00 0.00 0.00 0.00 0.00 0.00 0.00 0.00 0.00 0.00 0.00 0.00 0.00 0.00 0.00 0.00 0.00 0.00 0.00 0.00 0.00 0.00
0.00 0.00 0.00 0.00 0.00 0.00 0.00 0.00 0.00 0.00 0.00 0.00 0.00 0.00 0.00 0.00 0.00 0.00 0.00 0.00 0.00 0.00 0.00 0.00 0.00 0.00 0.00 0.00 0.00 0.00 0.00 0.00 0.00 0.00 0.00 0.00 0.00 0.00 0.00 0.00 0.00 0.00 0.00 0.00 0.00 0.00 0.00 0.00 0.00
0.00 0.00 0.00 0.00 0.00 0.00 0.00 0.00 0.00 0.00 0.00 0.00 0.00 0.00 0.00 0.00 0.00 0.00 0.00 0.00 0.00 0.00 0.00 0.00 0.00 0.00 0.00 0.00 0.00 0.00 0.00 0.00 0.00 0.00 0.00 0.00 0.00 0.00 0.00 0.00 0.00 0.00 0.00 0.00 0.00 0.00 0.00 0.00 0.00
0.00 0.00 0.00 0.00 0.00 0.00 0.00 0.00 0.00 0.00 0.00 0.00 0.00 0.00 0.00 0.00 0.00 0.00 0.00 0.00 0.00 0.00 0.00 0.00 0.00 0.00 0.00 0.00 0.00 0.00 0.00 0.00 0.00 0.00 0.00 0.00 0.00 0.00 0.00 0.00 0.00 0.00 0.00 0.00 0.00 0.00 0.00 0.00 0.00
0.00 0.00 0.00 0.00 0.00 0.00 0.00 0.00 0.00 0.00 0.00 0.00 0.00 0.00 0.00 0.00 0.00 0.00 0.00 0.00 0.00 0.00 0.00 0.00 0.00 0.00 0.00 0.00 0.00 0.00 0.00 0.00 0.00 0.00 0.00 0.00 0.00 0.00 0.00 0.00 0.00 0.00 0.00 0.00 0.00 0.00 0.00 0.00 0.00
0.00 0.00 0.00 0.00 0.00 0.00 0.00 0.00 0.00 0.00 0.00 0.00 0.00 0.00 0.00 0.00 0.00 0.00 0.00 0.00 0.00 0.00 0.00 0.00 0.00 0.00 0.00 0.00 0.00 0.00 0.00 0.00 0.00 0.00 0.00 0.00 0.00 0.00 0.00 0.00 0.00 0.00 0.00 0.00 0.00 0.00 0.00 0.00 0.00
0.00 0.00 0.00 0.00 0.00 0.00 0.00 0.00 0.00 0.00 0.00 0.00 0.00 0.00 0.00 0.00 0.00 0.00 0.00 0.00 0.00 0.00 0.00 0.00 0.00 0.00 0.00 0.00 0.00 0.00 0.00 0.00 0.00 0.00 0.00 0.00 0.00 0.00 0.00 0.00 0.00 0.00 0.00 0.00 0.00 0.00 0.00 0.00 0.00
0.00 0.00 0.00 0.00 0.00 0.00 0.00 0.00 0.00 0.00 0.00 0.00 0.00 0.00 0.00 0.00 0.00 0.00 0.00 0.00 0.00 0.00 0.00 0.00 0.00 0.00 0.00 0.00 0.00 0.00 0.00 0.00 0.00 0.00 0.00 0.00 0.00 0.00 0.00 0.00 0.00 0.00 0.00 0.00 0.00 0.00 0.00 0.00 0.00
0.00 0.00 0.00 0.00 0.00 0.00 0.00 0.00 0.00 0.00 0.00 0.00 0.00 0.00 0.00 0.00 0.00 0.00 0.00 0.00 0.00 0.00 0.00 0.00 0.00 0.00 0.00 0.00 0.00 0.00 0.00 0.00 0.00 0.00 0.00 0.00 0.00 0.00 0.00 0.00 0.00 0.00 0.00 0.00 0.00 0.00 0.00 0.00 0.00
0.00 0.00 0.00 0.00 0.00 0.00 0.00 0.00 0.00 0.00 0.00 0.00 0.00 0.00 0.00 0.00 0.00 0.00 0.00 0.00 0.00 0.00 0.00 0.00 0.00 0.00 0.00 0.00 0.00 0.00 0.00 0.00 0.00 0.00 0.00 0.00 0.00 0.00 0.00 0.00 0.00 0.00 0.00 0.00 0.00 0.00 0.00 0.00 0.00
MSLP
1016.13 1016.49 1017.01 1017.62 1018.23 1018.77 1019.17 1019.41 1019.47 1019.40 1019.22 1019.00 1018.76 1018.54 1018.35 1018.17 1018.01 1017.86 1017.73 1017.66 1017.67 1017.79 1018.04 1018.42 1018.92 1019.47 1020.04 1020.57 1021.02 1021.37 1021.64 1021.84 1022.01 1022.18 1022.38 1022.60 1022.85 1023.09 1023.30 1023.45 1023.55 1023.60 1023.61 1023.60 1023.59 1023.60 1023.62 1023.65 1023.67
1016.30 1016.78 1017.39 1018.05 1018.66 1019.15 1019.46 1019.55 1019.45 1019.20 1018.87 1018.52 1018.20 1017.94 1017.75 1017.61 1017.51 1017.43 1017.37 1017.35 1017.41 1017.57 1017.85 1018.26 1018.78 1019.38 1019.99 1020.56 1021.06 1021.46 1021.77 1022.01 1022.21 1022.41 1022.62 1022.86 1023.11 1023.36 1023.57 1023.73 1023.83 1023.88 1023.90 1023.91 1023.94 1023.98 1024.03 1024.09 1024.13
1016.53 1017.10 1017.76 1018.42 1019.00 1019.40 1019.59 1019.54 1019.29 1018.90 1018.45 1018.01 1017.64 1017.37 1017.20 1017.11 1017.07 1017.07 1017.09 1017.14 1017.25 1017.46 1017.77 1018.21 1018.75 1019.36 1019.99 1020.58 1021.10 1021.53 1021.86 1022.13 1022.35 1022.57 1022.80 1023.05 1023.30 1023.54 1023.75 1023.91 1024.01 1024.08 1024.11 1024.15 1024.20 1024.27 1024.36 1024.45 1024.50
1016.83 1017.43 1018.09 1018.71 1019.22 1019.52 1019.59 1019.42 1019.05 1018.56 1018.02 1017.54 1017.15 1016.90 1016.77 1016.74 1016.78 1016.85 1016.94 1017.06 1017.23 1017.47 1017.81 1018.25 1018.80 1019.40 1020.02 1020.61 1021.12 1021.54 1021.88 1022.15 1022.39 1022.62 1022.87 1023.13 1023.39 1023.64 1023.85 1024.01 1024.12 1024.19 1024.25 1024.31 1024.39 1024.50 1024.62 1024.72 1024.79
1017.16 1017.76 1018.37 1018.93 1019.33 1019.53 1019.49 1019.22 1018.78 1018.23 1017.68 1017.19 1016.83 1016.61 1016.53 1016.56 1016.66 1016.79 1016.93 1017.10 1017.30 1017.57 1017.91 1018.35 1018.88 1019.45 1020.04 1020.59 1021.07 1021.47 1021.80 1022.08 1022.32 1022.57 1022.83 1023.11 1023.38 1023.64 1023.86 1024.03 1024.16 1024.25 1024.33 1024.42 1024.53 1024.67 1024.81 1024.94 1025.02
1017.50 1018.06 1018.61 1019.06 1019.36 1019.45 1019.33 1019.00 1018.53 1017.99 1017.46 1017.01 1016.69 1016.53 1016.49 1016.56 1016.70 1016.86 1017.04 1017.22 1017.44 1017.70 1018.04 1018.46 1018.94 1019.47 1020.00 1020.50 1020.94 1021.32 1021.63 1021.90 1022.16 1022.43 1022.72 1023.02 1023.32 1023.59 1023.83 1024.02 1024.16 1024.27 1024.38 1024.49 1024.63 1024.79 1024.95 1025.09 1025.18
1017.82 1018.32 1018.78 1019.13 1019.32 1019.33 1019.15 1018.80 1018.34 1017.84 1017.37 1016.98 1016.72 1016.60 1016.60 1016.69 1016.84 1017.01 1017.18 1017.36 1017.57 1017.81 1018.13 1018.51 1018.95 1019.43 1019.91 1020.35 1020.75 1021.10 1021.40 1021.68 1021.96 1022.25 1022.57 1022.90 1023.23 1023.53 1023.78 1023.99 1024.14 1024.28 1024.40 1024.53 1024.69 1024.86 1025.03 1025.18 1025.28
1018.09 1018.53 1018.89 1019.14 1019.25 1019.19 1018.98 1018.64 1018.22 1017.78 1017.37 1017.05 1016.85 1016.76 1016.77 1016.86 1016.99 1017.13 1017.28 1017.44 1017.62 1017.85 1018.14 1018.49 1018.89 1019.32 1019.75 1020.16 1020.54 1020.87 1021.17 1021.46 1021.77 1022.09 1022.45 1022.80 1023.15 1023.47 1023.74 1023.96 1024.12 1024.26 1024.39 1024.53 1024.69 1024.87 1025.04 1025.18 1025.28
1018.31 1018.66 1018.94 1019.10 1019.14 1019.04 1018.83 1018.51 1018.14 1017.76 1017.43 1017.16 1016.99 1016.91 1016.91 1016.96 1017.05 1017.15 1017.27 1017.40 1017.56 1017.77 1018.05 1018.38 1018.76 1019.17 1019.58 1019.97 1020.33 1020.66 1020.98 1021.30 1021.63 1021.99 1022.37 1022.75 1023.11 1023.44 1023.71 1023.92 1024.09 1024.22 1024.34 1024.47 1024.62 1024.78 1024.94 1025.08 1025.17
1018.47 1018.75 1018.94 1019.03 1019.02 1018.90 1018.69 1018.41 1018.09 1017.77 1017.48 1017.24 1017.08 1016.98 1016.94 1016.95 1016.98 1017.04 1017.11 1017.22 1017.38 1017.59 1017.87 1018.21 1018.59 1019.00 1019.41 1019.80 1020.17 1020.52 1020.85 1021.20 1021.56 1021.94 1022.33 1022.72 1023.09 1023.41 1023.66 1023.86 1024.00 1024.11 1024.22 1024.33 1024.46 1024.60 1024.74 1024.86 1024.94
1018.57 1018.78 1018.91 1018.95 1018.90 1018.78 1018.58 1018.33 1018.05 1017.77 1017.50 1017.27 1017.09 1016.95 1016.85 1016.80 1016.77 1016.79 1016.84 1016.94 1017.10 1017.33 1017.64 1018.00 1018.41 1018.84 1019.27 1019.68 1020.07 1020.43 1020.79 1021.16 1021.53 1021.92 1022.31 1022.69 1023.04 1023.33 1023.56 1023.73 1023.84 1023.93 1024.01 1024.09 1024.19 1024.30 1024.42 1024.51 1024.58
1018.65 1018.80 1018.88 1018.87 1018.81 1018.68 1018.50 1018.27 1018.02 1017.76 1017.49 1017.24 1017.02 1016.83 1016.67 1016.56 1016.48 1016.46 1016.50 1016.61 1016.79 1017.06 1017.41 1017.81 1018.26 1018.72 1019.17 1019.60 1020.01 1020.39 1020.77 1021.13 1021.51 1021.88 1022.26 1022.61 1022.92 1023.17 1023.37 1023.50 1023.59 1023.65 1023.70 1023.76 1023.83 1023.92 1024.00 1024.06 1024.10
1018.74 1018.83 1018.85 1018.82 1018.74 1018.62 1018.45 1018.25 1018.02 1017.76 1017.48 1017.21 1016.94 1016.69 1016.48 1016.31 1016.19 1016.15 1016.18 1016.31 1016.53 1016.84 1017.22 1017.67 1018.15 1018.64 1019.12 1019.56 1019.98 1020.36 1020.73 1021.08 1021.43 1021.78 1022.12 1022.43 1022.69 1022.91 1023.07 1023.17 1023.24 1023.28 1023.31 1023.36 1023.41 1023.46 1023.51 1023.54 1023.54
1018.85 1018.89 1018.87 1018.82 1018.73 1018.61 1018.46 1018.28 1018.06 1017.80 1017.52 1017.21 1016.91 1016.62 1016.36 1016.15 1016.01 1015.95 1015.99 1016.14 1016.38 1016.73 1017.14 1017.62 1018.12 1018.62 1019.09 1019.54 1019.94 1020.31 1020.65 1020.97 1021.28 1021.58 1021.87 1022.13 1022.35 1022.53 1022.66 1022.75 1022.80 1022.84 1022.87 1022.90 1022.93 1022.96 1022.98 1022.97 1022.93
1019.00 1018.99 1018.94 1018.87 1018.78 1018.67 1018.53 1018.37 1018.16 1017.91 1017.63 1017.31 1016.99 1016.67 1016.39 1016.16 1016.01 1015.95 1016.00 1016.15 1016.41 1016.76 1017.18 1017.66 1018.15 1018.64 1019.10 1019.51 1019.89 1020.22 1020.51 1020.79 1021.04 1021.29 1021.52 1021.73 1021.92 1022.06 1022.18 1022.26 1022.31 1022.36 1022.39 1022.43 1022.45 1022.46 1022.45 1022.39 1022.30
1019.19 1019.14 1019.06 1018.97 1018.87 1018.77 1018.66 1018.51 1018.33 1018.09 1017.82 1017.52 1017.20 1016.89 1016.61 1016.38 1016.23 1016.17 1016.21 1016.36 1016.61 1016.95 1017.35 1017.79 1018.25 1018.70 1019.12 1019.49 1019.82 1020.10 1020.34 1020.56 1020.76 1020.94 1021.12 1021.29 1021.43 1021.56 1021.66 1021.74 1021.81 1021.86 1021.91 1021.96 1021.98 1021.97 1021.92 1021.82 1021.67
1019.40 1019.31 1019.21 1019.10 1019.01 1018.91 1018.81 1018.68 1018.52 1018.32 1018.08 1017.81 1017.52 1017.24 1016.98 1016.78 1016.64 1016.58 1016.62 1016.75 1016.97 1017.26 1017.62 1018.01 1018.41 1018.81 1019.17 1019.49 1019.75 1019.98 1020.16 1020.32 1020.46 1020.59 1020.72 1020.84 1020.95 1021.05 1021.15 1021.23 1021.31 1021.38 1021.44 1021.48 1021.50 1021.48 1021.40 1021.26 1021.05
1019.59 1019.49 1019.37 1019.25 1019.15 1019.05 1018.95 1018.84 1018.70 1018.53 1018.34 1018.12 1017.89 1017.66 1017.45 1017.29 1017.17 1017.13 1017.15 1017.25 1017.43 1017.67 1017.96 1018.29 1018.62 1018.95 1019.25 1019.51 1019.72 1019.89 1020.02 1020.13 1020.21 1020.29 1020.36 1020.43 1020.51 1020.59 1020.67 1020.74 1020.82 1020.89 1020.95 1021.00 1021.01 1020.97 1020.87 1020.69 1020.44
1019.75 1019.64 1019.51 1019.38 1019.26 1019.16 1019.05 1018.94 1018.82 1018.69 1018.53 1018.37 1018.21 1018.06 1017.92 1017.81 1017.74 1017.71 1017.73 1017.80 1017.93 1018.11 1018.34 1018.59 1018.86 1019.12 1019.37 1019.57 1019.74 1019.86 1019.94 1019.99 1020.03 1020.05 1020.07 1020.10 1020.13 1020.17 1020.22 1020.28 1020.33 1020.39 1020.44 1020.47 1020.47 1020.41 1020.29 1020.10 1019.82
1019.85 1019.74 1019.61 1019.47 1019.34 1019.20 1019.08 1018.95 1018.83 1018.72 1018.61 1018.51 1018.43 1018.36 1018.31 1018.27 1018.25 1018.25 1018.27 1018.33 1018.42 1018.55 1018.71 1018.91 1019.11 1019.32 1019.52 1019.68 1019.81 1019.89 1019.93 1019.93 1019.92 1019.89 1019.85 1019.82 1019.81 1019.80 1019.80 1019.81 1019.83 1019.85 1019.87 1019.87 1019.85 1019.78 1019.65 1019.45 1019.16
1019.89 1019.80 1019.67 1019.52 1019.35 1019.18 1019.01 1018.85 1018.71 1018.60 1018.52 1018.49 1018.48 1018.50 1018.54 1018.58 1018.63 1018.68 1018.73 1018.78 1018.85 1018.94 1019.06 1019.21 1019.37 1019.54 1019.69 1019.82 1019.91 1019.96 1019.96 1019.92 1019.85 1019.77 1019.67 1019.59 1019.51 1019.44 1019.38 1019.33 1019.29 1019.26 1019.23 1019.19 1019.13 1019.05 1018.91 1018.72 1018.45
1019.88 1019.81 1019.69 1019.51 1019.31 1019.08 1018.85 1018.64 1018.46 1018.35 1018.29 1018.30 1018.37 1018.48 1018.61 1018.75 1018.87 1018.98 1019.06 1019.13 1019.20 1019.27 1019.36 1019.48 1019.61 1019.74 1019.87 1019.97 1020.03 1020.04 1020.00 1019.92 1019.79 1019.65 1019.50 1019.35 1019.20 1019.06 1018.94 1018.82 1018.71 1018.61 1018.51 1018.42 1018.33 1018.22 1018.09 1017.91 1017.68
1019.83 1019.79 1019.67 1019.48 1019.23 1018.94 1018.64 1018.37 1018.15 1018.01 1017.96 1018.01 1018.14 1018.33 1018.56 1018.79 1018.99 1019.17 1019.30 1019.39 1019.47 1019.54 1019.62 1019.71 1019.82 1019.93 1020.03 1020.10 1020.12 1020.10 1020.01 1019.88 1019.71 1019.51 1019.29 1019.08 1018.87 1018.66 1018.47 1018.28 1018.10 1017.92 1017.76 1017.60 1017.46 1017.33 1017.19 1017.03 1016.83
1019.76 1019.75 1019.63 1019.42 1019.13 1018.78 1018.41 1018.07 1017.81 1017.64 1017.60 1017.68 1017.87 1018.14 1018.45 1018.76 1019.05 1019.28 1019.46 1019.59 1019.69 1019.76 1019.83 1019.91 1019.99 1020.08 1020.15 1020.18 1020.17 1020.10 1019.97 1019.79 1019.56 1019.31 1019.04 1018.77 1018.51 1018.25 1017.99 1017.74 1017.49 1017.24 1017.00 1016.78 1016.58 1016.40 1016.25 1016.09 1015.93
1019.68 1019.69 1019.59 1019.36 1019.02 1018.62 1018.20 1017.81 1017.51 1017.33 1017.29 1017.40 1017.63 1017.96 1018.34 1018.73 1019.08 1019.37 1019.60 1019.76 1019.87 1019.95 1020.01 1020.07 1020.13 1020.19 1020.22 1020.22 1020.16 1020.05 1019.87 1019.64 1019.37 1019.07 1018.76 1018.45 1018.14 1017.83 1017.53 1017.22 1016.91 1016.60 1016.29 1016.00 1015.73 1015.50 1015.30 1015.14 1014.99
1019.59 1019.63 1019.53 1019.29 1018.93 1018.50 1018.04 1017.62 1017.29 1017.11 1017.08 1017.22 1017.49 1017.87 1018.30 1018.74 1019.14 1019.47 1019.73 1019.91 1020.03 1020.11 1020.16 1020.20 1020.24 1020.26 1020.25 1020.21 1020.11 1019.95 1019.73 1019.45 1019.14 1018.80 1018.45 1018.11 1017.77 1017.44 1017.10 1016.76 1016.40 1016.03 1015.65 1015.29 1014.94 1014.65 1014.40 1014.20 1014.03
1019.47 1019.53 1019.44 1019.20 1018.84 1018.39 1017.93 1017.51 1017.18 1017.01 1017.01 1017.17 1017.47 1017.88 1018.35 1018.82 1019.25 1019.60 1019.87 1020.06 1020.18 1020.25 1020.29 1020.31 1020.32 1020.30 1020.26 1020.17 1020.03 1019.83 1019.56 1019.25 1018.90 1018.53 1018.15 1017.79 1017.43 1017.08 1016.72 1016.35 1015.95 1015.53 1015.09 1014.66 1014.25 1013.87 1013.55 1013.29 1013.09
1019.31 1019.39 1019.31 1019.08 1018.73 1018.30 1017.86 1017.46 1017.17 1017.03 1017.05 1017.25 1017.58 1018.01 1018.49 1018.97 1019.41 1019.76 1020.03 1020.22 1020.33 1020.39 1020.41 1020.41 1020.38 1020.34 1020.26 1020.13 1019.95 1019.70 1019.40 1019.05 1018.66 1018.27 1017.87 1017.48 1017.11 1016.74 1016.36 1015.97 1015.54 1015.09 1014.60 1014.11 1013.62 1013.17 1012.78 1012.45 1012.19
1019.10 1019.19 1019.13 1018.91 1018.59 1018.20 1017.80 1017.45 1017.21 1017.13 1017.20 1017.42 1017.78 1018.22 1018.70 1019.18 1019.60 1019.95 1020.21 1020.38 1020.48 1020.52 1020.52 1020.50 1020.45 1020.37 1020.26 1020.10 1019.88 1019.59 1019.25 1018.87 1018.45 1018.02 1017.59 1017.18 1016.78 1016.39 1015.99 1015.58 1015.13 1014.65 1014.13 1013.59 1013.05 1012.54 1012.08 1011.68 1011.36
1018.83 1018.92 1018.87 1018.68 1018.39 1018.05 1017.72 1017.45 1017.28 1017.26 1017.38 1017.65 1018.03 1018.48 1018.96 1019.41 1019.82 1020.15 1020.39 1020.54 1020.63 1020.65 1020.64 1020.59 1020.52 1020.41 1020.27 1020.07 1019.81 1019.49 1019.12 1018.69 1018.23 1017.76 1017.30 1016.85 1016.41 1015.99 1015.57 1015.13 1014.66 1014.16 1013.62 1013.05 1012.48 1011.93 1011.41 1010.96 1010.58
Thickness
5738 5740 5743 5739 5728 5716 5710 5715 5721 5722 5725 5730 5730 5728 5727 5726 5722 5720 5733 5734 5731 5727 5721 5715 5710 5706 5703 5700 5697 5695 5692 5690 5687 5685 5684 5682 5680 5679 5678 5676 5675 5674 5674 5673 5673 5673 5673 5673 5673
5740 5742 5740 5735 5718 5705 5707 5718 5719 5723 5728 5729 5729 5729 5728 5732 5737 5738 5736 5731 5728 5725 5720 5716 5710 5705 5702 5698 5696 5693 5690 5687 5685 5683 5680 5678 5677 5675 5673 5672 5671 5669 5668 5668 5668 5667 5667 5667 5667
5741 5743 5737 5727 5714 5709 5710 5720 5723 5727 5729 5728 5729 5731 5732 5735 5738 5738 5735 5730 5727 5723 5719 5715 5709 5704 5701 5697 5694 5691 5688 5685 5682 5680 5678 5675 5673 5671 5669 5668 5666 5665 5664 5663 5662 5662 5662 5661 5661
5742 5739 5735 5723 5711 5716 5719 5725 5725 5726 5726 5727 5729 5730 5735 5739 5739 5736 5731 5728 5726 5722 5718 5714 5707 5703 5699 5696 5692 5689 5686 5683 5680 5678 5675 5673 5671 5668 5666 5664 5662 5660 5659 5658 5657 5657 5657 5656 5655
5742 5736 5722 5713 5712 5720 5727 5727 5726 5725 5727 5728 5727 5728 5733 5738 5735 5732 5729 5727 5725 5722 5717 5713 5706 5702 5698 5694 5691 5687 5684 5681 5678 5675 5673 5670 5668 5665 5662 5660 5658 5656 5655 5654 5653 5652 5651 5651 5650
5734 5731 5716 5709 5714 5721 5728 5729 5726 5726 5728 5729 5726 5727 5735 5736 5732 5729 5727 5724 5723 5719 5715 5711 5704 5700 5696 5693 5689 5685 5682 5679 5676 5673 5670 5667 5665 5662 5659 5657 5655 5653 5651 5649 5648 5647 5646 5645 5645
5729 5722 5713 5712 5712 5717 5724 5728 5727 5727 5728 5732 5732 5727 5737 5736 5729 5726 5725 5723 5720 5716 5712 5709 5703 5699 5694 5691 5687 5683 5680 5676 5673 5670 5667 5665 5662 5659 5656 5654 5651 5649 5647 5645 5644 5642 5641 5641 5640
5732 5723 5712 5712 5711 5715 5725 5726 5727 5727 5729 5735 5732 5728 5732 5732 5725 5723 5721 5719 5717 5713 5710 5707 5703 5698 5694 5689 5684 5681 5677 5673 5670 5667 5664 5661 5658 5656 5653 5650 5648 5645 5643 5641 5639 5638 5637 5636 5635
5729 5715 5708 5711 5711 5717 5724 5723 5727 5730 5729 5730 5732 5734 5732 5723 5721 5719 5717 5715 5713 5710 5708 5705 5702 5698 5693 5688 5683 5678 5674 5670 5667 5663 5660 5657 5655 5653 5650 5647 5644 5641 5639 5637 5636 5634 5633 5631 5630
5721 5709 5712 5718 5720 5720 5721 5720 5723 5725 5725 5728 5731 5733 5726 5722 5720 5720 5719 5718 5714 5710 5707 5704 5700 5695 5690 5685 5680 5676 5671 5667 5664 5661 5658 5654 5651 5649 5646 5642 5639 5637 5635 5633 5632 5630 5629 5627 5628
5716 5711 5715 5716 5719 5717 5716 5718 5721 5718 5720 5726 5725 5728 5728 5723 5721 5720 5721 5720 5716 5711 5705 5701 5697 5692 5687 5682 5677 5673 5669 5664 5661 5658 5654 5650 5646 5643 5640 5638 5635 5633 5630 5630 5627 5626 5626 5624 5623
5710 5712 5712 5715 5712 5711 5713 5715 5717 5716 5721 5724 5722 5722 5723 5723 5723 5721 5720 5719 5715 5709 5704 5698 5693 5688 5683 5679 5674 5669 5665 5661 5657 5653 5649 5645 5641 5638 5636 5634 5632 5629 5627 5625 5623 5622 5622 5620 5618
5705 5707 5708 5709 5707 5708 5707 5709 5711 5716 5720 5720 5718 5718 5719 5721 5722 5721 5719 5716 5712 5706 5701 5695 5690 5685 5679 5674 5670 5666 5662 5657 5653 5648 5644 5640 5637 5634 5632 5629 5626 5624 5622 5620 5619 5618 5617 5615 5614
5701 5702 5704 5705 5705 5704 5703 5707 5704 5714 5714 5715 5715 5715 5716 5716 5716 5717 5715 5712 5709 5704 5698 5693 5687 5681 5675 5670 5666 5661 5657 5653 5648 5644 5640 5636 5633 5630 5627 5624 5621 5619 5617 5616 5614 5613 5612 5611 5610
5696 5695 5702 5702 5701 5702 5699 5704 5705 5710 5710 5712 5712 5712 5711 5711 5711 5711 5710 5709 5706 5701 5695 5689 5683 5677 5672 5666 5661 5657 5652 5648 5644 5640 5636 5632 5628 5625 5622 5620 5617 5615 5612 5610 5608 5607 5605 5604 5604
5691 5690 5692 5697 5697 5696 5694 5697 5705 5704 5704 5705 5706 5707 5707 5706 5706 5704 5704 5703 5701 5696 5690 5684 5677 5672 5667 5662 5657 5652 5647 5643 5639 5635 5631 5627 5624 5621 5617 5615 5613 5610 5608 5605 5603 5601 5600 5599 5599
5684 5685 5686 5691 5692 5692 5691 5693 5702 5700 5698 5698 5699 5700 5700 5700 5699 5697 5696 5696 5693 5689 5684 5678 5672 5667 5662 5656 5651 5646 5642 5637 5634 5631 5627 5623 5619 5616 5612 5610 5608 5605 5602 5599 5597 5595 5595 5595 5595
5679 5680 5679 5682 5687 5684 5684 5690 5696 5695 5691 5693 5693 5693 5692 5691 5688 5688 5687 5686 5684 5681 5677 5672 5666 5661 5656 5650 5644 5639 5635 5631 5628 5625 5622 5618 5615 5611 5607 5605 5603 5600 5597 5594 5592 5590 5589 5588 5587
5675 5673 5674 5680 5679 5675 5680 5684 5689 5688 5687 5687 5686 5685 5684 5682 5681 5680 5679 5678 5675 5672 5668 5664 5659 5654 5649 5644 5638 5634 5630 5627 5623 5619 5617 5613 5610 5606 5603 5600 5598 5595 5592 5590 5588 5586 5584 5582 5579
5666 5666 5671 5675 5669 5670 5675 5678 5684 5683 5682 5681 5679 5678 5677 5676 5674 5672 5671 5669 5667 5663 5660 5656 5651 5646 5641 5637 5632 5628 5625 5622 5619 5615 5611 5608 5604 5601 5598 5595 5592 5590 5587 5585 5582 5579 5577 5575 5570
5661 5664 5669 5667 5668 5664 5665 5677 5677 5677 5676 5672 5672 5670 5670 5668 5667 5664 5662 5659 5657 5653 5649 5646 5642 5637 5633 5628 5624 5619 5616 5613 5611 5608 5605 5602 5598 5595 5592 5589 5586 5584 5581 5580 5577 5573 5569 5567 5565
5660 5665 5660 5657 5660 5669 5662 5671 5676 5674 5671 5669 5668 5666 5664 5660 5658 5655 5653 5650 5646 5642 5639 5637 5633 5629 5624 5620 5617 5614 5611 5609 5607 5602 5599 5595 5592 5589 5586 5583 5580 5578 5575 5573 5570 5566 5563 5559 5557
5659 5654 5653 5652 5654 5658 5659 5662 5679 5670 5667 5668 5667 5662 5658 5653 5651 5647 5643 5640 5637 5633 5630 5628 5624 5620 5616 5612 5609 5606 5603 5600 5597 5594 5591 5589 5586 5582 5579 5576 5573 5571 5568 5566 5563 5559 5555 5551 5548
5648 5648 5643 5644 5650 5654 5661 5660 5673 5673 5674 5671 5665 5658 5652 5647 5643 5640 5636 5633 5629 5625 5622 5619 5616 5612 5608 5604 5600 5597 5594 5591 5589 5587 5585 5582 5580 5576 5573 5569 5566 5563 5561 5558 5555 5551 5546 5542 5539
5646 5648 5648 5650 5652 5660 5650 5651 5672 5675 5672 5671 5664 5656 5649 5643 5639 5635 5630 5626 5622 5617 5614 5611 5608 5603 5599 5595 5592 5588 5585 5582 5580 5578 5576 5574 5572 5569 5566 5561 5558 5555 5552 5548 5544 5540 5536 5532 5527
5647 5649 5648 5648 5654 5658 5643 5652 5673 5666 5661 5659 5658 5652 5643 5638 5634 5628 5623 5619 5614 5609 5606 5603 5599 5594 5590 5586 5583 5579 5576 5573 5570 5567 5565 5563 5561 5559 5555 5551 5547 5544 5540 5536 5532 5528 5524 5519 5514
5641 5645 5646 5646 5639 5644 5657 5659 5666 5657 5654 5651 5649 5643 5637 5632 5627 5621 5616 5611 5607 5602 5597 5593 5589 5585 5581 5577 5574 5570 5567 5563 5560 5557 5554 5552 5550 5547 5543 5540 5536 5533 5528 5523 5518 5515 5510 5504 5499
5640 5643 5637 5638 5637 5642 5653 5655 5663 5657 5653 5647 5644 5639 5633 5626 5620 5614 5609 5603 5598 5593 5588 5584 5580 5576 5571 5568 5564 5559 5557 5553 5549 5547 5544 5541 5538 5534 5531 5527 5523 5519 5514 5508 5503 5499 5493 5487 5482
5629 5630 5635 5637 5635 5638 5641 5656 5660 5657 5652 5646 5641 5636 5629 5621 5615 5608 5602 5595 5589 5584 5579 5575 5571 5566 5562 5558 5554 5550 5547 5543 5539 5536 5533 5529 5525 5521 5517 5513 5509 5504 5498 5492 5487 5482 5475 5469 5464
5635 5637 5635 5633 5631 5629 5635 5649 5650 5647 5643 5639 5635 5627 5620 5614 5607 5600 5593 5587 5581 5576 5571 5566 5561 5557 5552 5547 5543 5540 5536 5532 5529 5525 5521 5516 5512 5508 5503 5498 5493 5488 5482 5475 5469 5463 5456 5450 5445